| time (UTC) | temp F | wind direction | speed knots | gust knots | rain 1hr in | rain 24hr in | rain mn in | humidity % | barometer mb |
| 20260508012836 | 48 | 306 | 0.0 | 1.7 | 0.00 | 0.00 | 0.00 | 71 | 1016.6 |
| 20260508011836 | 48 | 59 | 0.0 | 0.9 | 0.00 | 0.00 | 0.00 | 70 | 1016.8 |
| 20260508004836 | 49 | 73 | 0.9 | 1.7 | 0.00 | 0.00 | 0.00 | 70 | 1016.6 |
| 20260508004336 | 49 | 72 | 0.9 | 1.7 | 0.00 | 0.00 | 0.00 | 70 | 1016.6 |
| 20260508001836 | 50 | 315 | 0.0 | 0.0 | 0.00 | 0.00 | 0.00 | 69 | 1016.7 |
| 20260508001336 | 50 | 318 | 0.0 | 0.0 | 0.00 | 0.00 | 0.00 | 69 | 1016.7 |
| 20260508000836 | 50 | 309 | 0.0 | 0.9 | 0.00 | 0.00 | 0.00 | 69 | 1016.5 |
| 20260507235336 | 50 | 332 | 0.0 | 0.9 | 0.00 | 0.00 | 0.00 | 69 | 1016.4 |
| 20260507234336 | 50 | 2 | 0.9 | 0.9 | 0.00 | 0.00 | 0.00 | 69 | 1016.5 |
| 20260507233336 | 51 | 93 | 0.0 | 0.9 | 0.00 | 0.00 | 0.00 | 68 | 1016.6 |
| 20260507232336 | 51 | 97 | 0.9 | 1.7 | 0.00 | 0.00 | 0.00 | 68 | 1016.7 |
| 20260507230836 | 52 | 352 | 0.0 | 0.9 | 0.00 | 0.00 | 0.00 | 68 | 1016.6 |
| 20260507225836 | 52 | 43 | 0.0 | 0.9 | 0.00 | 0.00 | 0.00 | 68 | 1016.5 |
| 20260507224836 | 52 | 343 | 0.9 | 1.7 | 0.00 | 0.00 | 0.00 | 68 | 1016.4 |
| 20260507223835 | 52 | 274 | 0.0 | 1.7 | 0.00 | 0.00 | 0.00 | 67 | 1016.5 |
| 20260507222336 | 53 | 56 | 0.9 | 1.7 | 0.00 | 0.00 | 0.00 | 67 | 1016.2 |
| 20260507221836 | 53 | 49 | 0.0 | 1.7 | 0.00 | 0.00 | 0.00 | 67 | 1016.3 |
| 20260507215836 | 54 | 304 | 0.0 | 1.7 | 0.00 | 0.00 | 0.00 | 67 | 1015.8 |
| 20260507215336 | 54 | 302 | 0.9 | 1.7 | 0.00 | 0.00 | 0.00 | 67 | 1016.1 |
| 20260507214836 | 54 | 323 | 0.9 | 1.7 | 0.00 | 0.00 | 0.00 | 66 | 1016.1 |
| 20260507213836 | 55 | 229 | 1.7 | 4.3 | 0.00 | 0.00 | 0.00 | 66 | 1015.9 |
| 20260507212836 | 55 | 15 | 0.0 | 0.9 | 0.00 | 0.00 | 0.00 | 66 | 1015.6 |
| 20260507212336 | 55 | 331 | 0.0 | 0.9 | 0.00 | 0.00 | 0.00 | 66 | 1015.7 |
| 20260507210836 | 56 | 330 | 1.7 | 2.6 | 0.00 | 0.00 | 0.00 | 65 | 1015.7 |
| 20260507204336 | 57 | 267 | 0.0 | 0.9 | 0.00 | 0.00 | 0.00 | 64 | 1015.4 |
| 20260507203336 | 57 | 240 | 0.0 | 0.0 | 0.00 | 0.00 | 0.00 | 64 | 1015.3 |
| 20260507202836 | 57 | 240 | 0.9 | 1.7 | 0.00 | 0.00 | 0.00 | 63 | 1015.4 |
| 20260507202336 | 58 | 264 | 0.9 | 1.7 | 0.00 | 0.00 | 0.00 | 63 | 1015.3 |
| 20260507201836 | 58 | 302 | 0.9 | 0.9 | 0.00 | 0.00 | 0.00 | 63 | 1015.5 |
| 20260507201336 | 58 | 234 | 0.9 | 0.9 | 0.00 | 0.00 | 0.00 | 63 | 1015.3 |
| 20260507200836 | 58 | 204 | 0.9 | 0.9 | 0.00 | 0.00 | 0.00 | 62 | 1015.6 |
| 20260507200336 | 58 | 206 | 0.9 | 1.7 | 0.00 | 0.00 | 0.00 | 62 | 1015.3 |
| 20260507195836 | 59 | 218 | 0.9 | 1.7 | 0.00 | 0.00 | 0.00 | 62 | 1015.4 |
| 20260507195336 | 59 | 267 | 0.0 | 0.9 | 0.00 | 0.00 | 0.00 | 62 | 1015.6 |
| 20260507193835 | 60 | 60 | 0.0 | 0.9 | 0.00 | 0.00 | 0.00 | 61 | 1015.3 |
| 20260507192836 | 60 | 60 | 0.9 | 2.6 | 0.00 | 0.00 | 0.00 | 61 | 1015.3 |
| 20260507192336 | 60 | 12 | 0.9 | 1.7 | 0.00 | 0.00 | 0.00 | 60 | 1015.3 |
| 20260507191836 | 60 | 359 | 0.0 | 0.9 | 0.00 | 0.00 | 0.00 | 60 | 1015.6 |
| 20260507190836 | 61 | 0 | 0.0 | 0.9 | 0.00 | 0.00 | 0.00 | 60 | 1015.4 |
| 20260507190335 | 61 | 0 | 0.0 | 0.9 | 0.00 | 0.00 | 0.00 | 60 | 1015.4 |
| 20260507185336 | 61 | 341 | 0.0 | 0.9 | 0.00 | 0.00 | 0.00 | 59 | 1015.3 |
| 20260507184336 | 62 | 324 | 0.9 | 1.7 | 0.00 | 0.00 | 0.00 | 59 | 1015.3 |
| 20260507183836 | 62 | 302 | 0.0 | 0.9 | 0.00 | 0.00 | 0.00 | 58 | 1015.2 |
| 20260507183336 | 62 | 301 | 0.9 | 0.9 | 0.00 | 0.00 | 0.00 | 58 | 1015.3 |
| 20260507182836 | 62 | 301 | 0.0 | 0.9 | 0.00 | 0.00 | 0.00 | 58 | 1015.2 |
| 20260507182336 | 62 | 319 | 0.0 | 0.9 | 0.00 | 0.00 | 0.00 | 58 | 1015.0 |
| 20260507180336 | 64 | 308 | 0.9 | 4.3 | 0.00 | 0.00 | 0.00 | 57 | 1014.8 |
| 20260507174336 | 65 | 267 | 0.9 | 1.7 | 0.00 | 0.00 | 0.00 | 55 | 1014.7 |
| 20260507172336 | 66 | 273 | 1.7 | 2.6 | 0.00 | 0.00 | 0.00 | 55 | 1014.8 |
| 20260507171836 | 66 | 275 | 1.7 | 2.6 | 0.00 | 0.00 | 0.00 | 54 | 1014.9 |
| 20260507170336 | 67 | 298 | 1.7 | 5.2 | 0.00 | 0.00 | 0.00 | 54 | 1014.5 |
| 20260507163336 | 68 | 313 | 4.3 | 6.1 | 0.00 | 0.00 | 0.00 | 53 | 1014.7 |
| 20260507162836 | 68 | 319 | 1.7 | 5.2 | 0.00 | 0.00 | 0.00 | 53 | 1014.8 |
| 20260507162335 | 68 | 274 | 2.6 | 5.2 | 0.00 | 0.00 | 0.00 | 52 | 1014.8 |
| 20260507161836 | 68 | 276 | 1.7 | 5.2 | 0.00 | 0.00 | 0.00 | 51 | 1014.9 |
| 20260507160836 | 68 | 289 | 1.7 | 5.2 | 0.00 | 0.00 | 0.00 | 51 | 1014.7 |
| 20260507155336 | 68 | 276 | 1.7 | 5.2 | 0.00 | 0.00 | 0.00 | 51 | 1015.1 |
| 20260507154835 | 68 | 266 | 1.7 | 2.6 | 0.00 | 0.00 | 0.00 | 50 | 1014.9 |
| 20260507154336 | 68 | 268 | 1.7 | 4.3 | 0.00 | 0.00 | 0.00 | 50 | 1015.0 |
| 20260507153336 | 68 | 314 | 1.7 | 5.2 | 0.00 | 0.00 | 0.00 | 51 | 1014.9 |
| 20260507152836 | 68 | 291 | 2.6 | 5.2 | 0.00 | 0.00 | 0.00 | 51 | 1015.0 |
| 20260507152335 | 68 | 283 | 1.7 | 4.3 | 0.00 | 0.00 | 0.00 | 51 | 1015.2 |
| 20260507151335 | 68 | 271 | 1.7 | 4.3 | 0.00 | 0.00 | 0.00 | 50 | 1015.2 |
| 20260507150335 | 68 | 276 | 1.7 | 4.3 | 0.00 | 0.00 | 0.00 | 50 | 1015.1 |
| 20260507145836 | 68 | 281 | 2.6 | 5.2 | 0.00 | 0.00 | 0.00 | 50 | 1015.6 |
| 20260507144836 | 69 | 294 | 1.7 | 5.2 | 0.00 | 0.00 | 0.00 | 50 | 1015.5 |
| 20260507144336 | 69 | 307 | 1.7 | 4.3 | 0.00 | 0.00 | 0.00 | 50 | 1015.5 |
| 20260507143336 | 69 | 295 | 1.7 | 2.6 | 0.00 | 0.00 | 0.00 | 49 | 1015.5 |
| 20260507142835 | 69 | 282 | 1.7 | 4.3 | 0.00 | 0.00 | 0.00 | 49 | 1015.6 |
| 20260507141336 | 69 | 309 | 2.6 | 6.1 | 0.00 | 0.00 | 0.00 | 48 | 1015.6 |
| 20260507140836 | 69 | 277 | 2.6 | 7.0 | 0.00 | 0.00 | 0.00 | 48 | 1015.7 |
| 20260507140336 | 69 | 302 | 2.6 | 7.8 | 0.00 | 0.00 | 0.00 | 48 | 1015.7 |
| 20260507135835 | 70 | 286 | 5.2 | 7.0 | 0.00 | 0.00 | 0.00 | 48 | 1015.9 |
| 20260507135336 | 70 | 290 | 2.6 | 6.1 | 0.00 | 0.00 | 0.00 | 48 | 1015.9 |
| 20260507134836 | 70 | 286 | 1.7 | 5.2 | 0.00 | 0.00 | 0.00 | 48 | 1015.9 |
| 20260507133836 | 70 | 304 | 2.6 | 7.8 | 0.00 | 0.00 | 0.00 | 47 | 1015.9 |
| 20260507133336 | 70 | 296 | 4.3 | 8.7 | 0.00 | 0.00 | 0.00 | 47 | 1015.9 |
| 20260507131336 | 70 | 296 | 4.3 | 8.7 | 0.00 | 0.00 | 0.00 | 47 | 1016.0 |
| 20260507130336 | 71 | 301 | 4.3 | 12.2 | 0.00 | 0.00 | 0.00 | 47 | 1016.1 |
| 20260507125836 | 71 | 294 | 3.5 | 7.8 | 0.00 | 0.00 | 0.00 | 47 | 1016.3 |
| 20260507124336 | 71 | 282 | 2.6 | 7.0 | 0.00 | 0.00 | 0.00 | 46 | 1016.6 |
| 20260507123836 | 71 | 310 | 5.2 | 8.7 | 0.00 | 0.00 | 0.00 | 46 | 1016.4 |
| 20260507123335 | 71 | 292 | 5.2 | 10.4 | 0.00 | 0.00 | 0.00 | 47 | 1016.5 |
| 20260507122335 | 70 | 156 | 4.3 | 8.7 | 0.00 | 0.00 | 0.00 | 47 | 1016.5 |
| 20260507121336 | 70 | 299 | 4.3 | 7.0 | 0.00 | 0.00 | 0.00 | 48 | 1016.5 |
| 20260507120836 | 70 | 310 | 2.6 | 6.1 | 0.00 | 0.00 | 0.00 | 48 | 1016.4 |
| 20260507115336 | 70 | 342 | 2.6 | 8.7 | 0.00 | 0.00 | 0.00 | 48 | 1016.6 |
| 20260507114836 | 71 | 331 | 4.3 | 7.0 | 0.00 | 0.00 | 0.00 | 48 | 1016.6 |
| 20260507113836 | 71 | 299 | 4.3 | 12.2 | 0.00 | 0.00 | 0.00 | 47 | 1016.5 |
| 20260507113336 | 71 | 290 | 5.2 | 7.8 | 0.00 | 0.00 | 0.00 | 47 | 1016.6 |
| 20260507111335 | 72 | 327 | 7.0 | 11.3 | 0.00 | 0.00 | 0.00 | 45 | 1016.5 |
| 20260507110837 | 73 | 311 | 5.2 | 8.7 | 0.00 | 0.00 | 0.00 | 45 | 1016.6 |
| 20260507105836 | 73 | 305 | 6.1 | 13.9 | 0.00 | 0.00 | 0.00 | 44 | 1016.7 |
| 20260507104836 | 74 | 289 | 2.6 | 4.3 | 0.00 | 0.00 | 0.00 | 44 | 1016.6 |
| 20260507103835 | 74 | 247 | 2.6 | 4.3 | 0.00 | 0.00 | 0.00 | 44 | 1016.6 |
| 20260507101836 | 74 | 258 | 2.6 | 5.2 | 0.00 | 0.00 | 0.00 | 45 | 1016.8 |
| 20260507100836 | 74 | 298 | 1.7 | 5.2 | 0.00 | 0.00 | 0.00 | 46 | 1016.7 |
| 20260507094336 | 73 | 291 | 2.6 | 6.1 | 0.00 | 0.00 | 0.00 | 47 | 1017.1 |
| 20260507091835 | 72 | 258 | 2.6 | 6.1 | 0.00 | 0.00 | 0.00 | 48 | 1017.1 |
| 20260507090836 | 72 | 217 | 1.7 | 5.2 | 0.00 | 0.00 | 0.00 | 50 | 1017.2 |
| 20260507085836 | 71 | 275 | 2.6 | 5.2 | 0.00 | 0.00 | 0.00 | 50 | 1017.2 |
| 20260507085335 | 71 | 145 | 1.7 | 5.2 | 0.00 | 0.00 | 0.00 | 50 | 1017.0 |
| 20260507084336 | 70 | 260 | 2.6 | 5.2 | 0.00 | 0.00 | 0.00 | 51 | 1017.1 |
| 20260507083836 | 70 | 172 | 1.7 | 4.3 | 0.00 | 0.00 | 0.00 | 53 | 1017.4 |
| 20260507082836 | 69 | 148 | 1.7 | 4.3 | 0.00 | 0.00 | 0.00 | 54 | 1017.3 |
| 20260507082335 | 69 | 151 | 2.6 | 4.3 | 0.00 | 0.00 | 0.00 | 55 | 1017.2 |
| 20260507081336 | 67 | 178 | 1.7 | 4.3 | 0.00 | 0.00 | 0.00 | 57 | 1017.2 |
| 20260507075836 | 66 | 162 | 0.9 | 1.7 | 0.00 | 0.00 | 0.00 | 57 | 1017.2 |
| 20260507075336 | 66 | 71 | 1.7 | 2.6 | 0.00 | 0.00 | 0.00 | 57 | 1017.1 |
| 20260507074336 | 65 | 45 | 1.7 | 4.3 | 0.00 | 0.00 | 0.00 | 58 | 1017.2 |
| 20260507073835 | 65 | 101 | 2.6 | 5.2 | 0.00 | 0.00 | 0.00 | 60 | 1017.3 |
| 20260507072836 | 63 | 13 | 0.9 | 2.6 | 0.00 | 0.00 | 0.00 | 61 | 1017.3 |
| 20260507072336 | 63 | 30 | 1.7 | 4.3 | 0.00 | 0.00 | 0.00 | 62 | 1017.4 |
| 20260507071336 | 62 | 281 | 0.9 | 1.7 | 0.00 | 0.00 | 0.00 | 63 | 1017.5 |
| 20260507070836 | 61 | 286 | 1.7 | 4.3 | 0.00 | 0.00 | 0.00 | 63 | 1017.4 |
| 20260507070336 | 61 | 281 | 2.6 | 4.3 | 0.00 | 0.00 | 0.00 | 63 | 1017.4 |
| 20260507065336 | 61 | 250 | 0.9 | 1.7 | 0.00 | 0.00 | 0.00 | 65 | 1017.5 |
| 20260507064836 | 60 | 249 | 0.0 | 1.7 | 0.00 | 0.00 | 0.00 | 65 | 1017.4 |
| 20260507063837 | 59 | 324 | 0.0 | 0.9 | 0.00 | 0.00 | 0.00 | 65 | 1017.3 |
| 20260507062836 | 59 | 312 | 0.9 | 1.7 | 0.00 | 0.00 | 0.00 | 65 | 1017.4 |
| 20260507061835 | 59 | 259 | 0.9 | 5.2 | 0.00 | 0.00 | 0.00 | 66 | 1017.4 |
| 20260507061336 | 59 | 218 | 1.7 | 4.3 | 0.00 | 0.00 | 0.00 | 66 | 1017.5 |
| 20260507060836 | 58 | 243 | 1.7 | 4.3 | 0.00 | 0.00 | 0.00 | 67 | 1017.5 |
| 20260507055335 | 57 | 125 | 0.9 | 4.3 | 0.00 | 0.00 | 0.00 | 69 | 1017.1 |
| 20260507054836 | 56 | 157 | 0.9 | 2.6 | 0.00 | 0.00 | 0.00 | 70 | 1017.3 |
| 20260507054336 | 55 | 147 | 1.7 | 4.3 | 0.00 | 0.00 | 0.00 | 70 | 1017.1 |
| 20260507053835 | 54 | 158 | 1.7 | 4.3 | 0.00 | 0.00 | 0.00 | 70 | 1017.1 |
| 20260507053336 | 54 | 162 | 1.7 | 4.3 | 0.00 | 0.00 | 0.00 | 70 | 1017.2 |
| 20260507052336 | 53 | 176 | 1.7 | 2.6 | 0.00 | 0.00 | 0.00 | 70 | 1017.3 |
| 20260507051836 | 52 | 177 | 0.9 | 1.7 | 0.00 | 0.00 | 0.00 | 70 | 1017.4 |
| 20260507044836 | 50 | 206 | 0.9 | 1.7 | 0.00 | 0.00 | 0.00 | 70 | 1017.0 |
| 20260507044336 | 49 | 181 | 0.9 | 2.6 | 0.00 | 0.00 | 0.00 | 70 | 1016.9 |
| 20260507043836 | 49 | 193 | 0.9 | 1.7 | 0.00 | 0.00 | 0.00 | 69 | 1016.8 |
| 20260507042836 | 49 | 9 | 0.0 | 0.0 | 0.00 | 0.00 | 0.00 | 68 | 1016.7 |
| 20260507040835 | 48 | 1 | 0.0 | 0.9 | 0.00 | 0.00 | 0.00 | 68 | 1016.8 |
| 20260507033336 | 47 | 330 | 0.9 | 0.9 | 0.00 | 0.00 | 0.00 | 68 | 1016.3 |
| 20260507032336 | 47 | 197 | 0.0 | 0.9 | 0.00 | 0.00 | 0.00 | 67 | 1016.2 |
| 20260507031836 | 48 | 221 | 0.9 | 2.6 | 0.00 | 0.00 | 0.00 | 67 | 1016.4 |
| 20260507030835 | 48 | 39 | 0.9 | 1.7 | 0.00 | 0.00 | 0.00 | 66 | 1016.3 |
| 20260507030335 | 48 | 29 | 0.9 | 0.9 | 0.00 | 0.00 | 0.00 | 66 | 1016.1 |
| 20260507025836 | 48 | 24 | 0.0 | 0.0 | 0.00 | 0.00 | 0.00 | 66 | 1015.9 |
| 20260507025335 | 48 | 28 | 0.0 | 0.9 | 0.00 | 0.00 | 0.00 | 66 | 1015.5 |
| 20260507024335 | 49 | 24 | 0.9 | 1.7 | 0.00 | 0.00 | 0.00 | 65 | 1015.7 |
| 20260507020836 | 49 | 14 | 0.9 | 1.7 | 0.00 | 0.00 | 0.00 | 64 | 1015.8 |
| 20260507020336 | 49 | 267 | 0.0 | 0.9 | 0.00 | 0.00 | 0.00 | 64 | 1015.6 |
| 20260507015836 | 50 | 250 | 0.0 | 0.9 | 0.00 | 0.00 | 0.00 | 64 | 1015.4 |
| 20260507014835 | 50 | 279 | 0.0 | 0.9 | 0.00 | 0.00 | 0.00 | 64 | 1015.3 |
| 20260507014336 | 50 | 309 | 0.0 | 0.9 | 0.00 | 0.00 | 0.00 | 64 | 1015.2 |